Location: Kernascl�den
(48.0062°N, 3.3198°W)
Time: 12:13:28
(UTC+00:00)

ATLAS 2AS CENTAUR R/B - Pass Details

Date: 21 January 2021
Orbit: 947 x 1265 km, 63.7° (Epoch: 13 February)

Event Time Altitude Azimuth Distance (km) Brightness Sun altitude
Rises 17:22:17 0° 236° (SW) 4,203 8.1 -4.7°
Reaches altitude 10° 17:25:09 10° 240° (WSW) 3,247 7.1 -5.1°
Maximum altitude 17:32:57 58° 319° (NW) 1,445 3.6 -6.3°
Drops below altitude 10° 17:40:35 10° 38° (NE) 3,180 4.7 -7.5°
Enters shadow 17:42:08 - 40° (NE) 3,696 5.0 -7.7°
